When you browse on this site, cookies collect data to enhance your experience and personalize the content and advertising you see.
Visit our Privacy Policy to learn more. By continuing to use the site, you agree to this use of cookies and data.
  • en Suisse
  • Liste des pays
  • À 7 jours
  • Température de l'eau
  • Carte météo
  • Widgets météo
  • user-avatar
    Se connecter

    Météo par heure à Birmingem

    Ce jour, 11 Décembre, Mercredi

    Heure Température Précipitation Vent Pression Humidité
    00:00 -1°C° 0.6 mm 4 m/s 751 mmHg 91%
    01:00 -1°C° 0.2 mm 4 m/s 751 mmHg 90%
    02:00 0°C° 0.2 mm 3 m/s 751 mmHg 88%
    03:00 0°C° 0.2 mm 3 m/s 751 mmHg 87%
    04:00 -1°C° 0 mm 3 m/s 752 mmHg 86%
    05:00 -1°C° 0 mm 3 m/s 752 mmHg 85%
    06:00 -2°C° 0 mm 3 m/s 752 mmHg 84%
    07:00 0°C° 0 mm 3 m/s 753 mmHg 77%
    08:00 0°C° 0 mm 4 m/s 753 mmHg 69%
    09:00 +1°C° 0 mm 4 m/s 754 mmHg 62%
    10:00 +4°C° 0 mm 4 m/s 754 mmHg 57%
    11:00 +5°C° 0 mm 4 m/s 754 mmHg 52%
    12:00 +8°C° 0 mm 3 m/s 754 mmHg 47%
    13:00 +8°C° 0 mm 3 m/s 754 mmHg 48%
    14:00 +8°C° 0 mm 3 m/s 753 mmHg 48%
    15:00 +8°C° 0 mm 3 m/s 753 mmHg 48%
    16:00 +7°C° 0 mm 3 m/s 753 mmHg 56%
    17:00 +5°C° 0 mm 2 m/s 753 mmHg 63%
    18:00 +4°C° 0 mm 2 m/s 754 mmHg 70%
    19:00 +3°C° 0 mm 2 m/s 754 mmHg 71%
    20:00 +3°C° 0 mm 2 m/s 754 mmHg 73%
    21:00 +3°C° 0 mm 2 m/s 754 mmHg 74%
    22:00 +3°C° 0 mm 2 m/s 754 mmHg 72%
    23:00 +2°C° 0 mm 2 m/s 753 mmHg 70%

    Demain, 12 Décembre, Jeudi

    Heure Température Précipitation Vent Pression Humidité
    00:00 +2°C° 0 mm 2 m/s 753 mmHg 69%
    01:00 +2°C° 0 mm 2 m/s 753 mmHg 67%
    02:00 +2°C° 0 mm 2 m/s 753 mmHg 66%
    03:00 +2°C° 0 mm 2 m/s 753 mmHg 65%
    04:00 +1°C° 0 mm 3 m/s 753 mmHg 65%
    05:00 +1°C° 0 mm 3 m/s 753 mmHg 64%
    06:00 +1°C° 0 mm 3 m/s 753 mmHg 64%
    07:00 +3°C° 0 mm 4 m/s 753 mmHg 58%
    08:00 +4°C° 0 mm 4 m/s 753 mmHg 53%
    09:00 +6°C° 0 mm 5 m/s 753 mmHg 48%
    10:00 +7°C° 0 mm 4 m/s 752 mmHg 48%
    11:00 +7°C° 0 mm 4 m/s 752 mmHg 47%
    12:00 +8°C° 0 mm 4 m/s 752 mmHg 47%
    13:00 +9°C° 0 mm 3 m/s 751 mmHg 49%
    14:00 +8°C° 0 mm 3 m/s 750 mmHg 50%
    15:00 +8°C° 0 mm 3 m/s 749 mmHg 52%
    16:00 +8°C° 0 mm 3 m/s 749 mmHg 55%
    17:00 +8°C° 0 mm 3 m/s 749 mmHg 57%
    18:00 +7°C° 0 mm 3 m/s 749 mmHg 59%
    19:00 +7°C° 0 mm 3 m/s 749 mmHg 62%
    20:00 +7°C° 0 mm 3 m/s 749 mmHg 65%
    21:00 +7°C° 0 mm 3 m/s 749 mmHg 67%
    22:00 +7°C° 0 mm 3 m/s 749 mmHg 72%
    23:00 +7°C° 0 mm 3 m/s 748 mmHg 76%

    Après-demain, 13 Décembre, Vendredi

    Heure Température Précipitation Vent Pression Humidité
    00:00 +7°C° 0 mm 3 m/s 748 mmHg 81%
    01:00 +7°C° 0.1 mm 3 m/s 747 mmHg 84%
    02:00 +7°C° 0.1 mm 2 m/s 747 mmHg 87%
    03:00 +7°C° 0.1 mm 2 m/s 746 mmHg 90%
    04:00 +7°C° 0 mm 2 m/s 746 mmHg 90%
    05:00 +7°C° 0 mm 2 m/s 746 mmHg 91%
    06:00 +7°C° 0 mm 2 m/s 745 mmHg 92%
    07:00 +8°C° 0 mm 2 m/s 745 mmHg 91%
    08:00 +9°C° 0 mm 2 m/s 745 mmHg 90%
    09:00 +9°C° 0 mm 2 m/s 744 mmHg 90%
    10:00 +10°C° 0 mm 2 m/s 743 mmHg 89%
    11:00 +10°C° 0 mm 2 m/s 743 mmHg 89%
    12:00 +12°C° 0 mm 2 m/s 742 mmHg 88%
    13:00 +12°C° 0 mm 2 m/s 741 mmHg 87%
    14:00 +13°C° 0 mm 2 m/s 740 mmHg 87%
    15:00 +13°C° 0 mm 2 m/s 739 mmHg 86%
    16:00 +13°C° 0.9 mm 2 m/s 739 mmHg 90%
    17:00 +12°C° 0.9 mm 2 m/s 739 mmHg 94%
    18:00 +12°C° 0.9 mm 1 m/s 739 mmHg 97%
    19:00 +12°C° 3.6 mm 1 m/s 739 mmHg 98%
    20:00 +12°C° 3.6 mm 1 m/s 738 mmHg 98%
    21:00 +12°C° 3.6 mm 1 m/s 738 mmHg 99%
    22:00 +12°C° 0.7 mm 1 m/s 738 mmHg 99%
    23:00 +12°C° 0.7 mm 1 m/s 737 mmHg 99%

    14 Décembre, Samedi

    Heure Température Précipitation Vent Pression Humidité
    00:00 +12°C° 0.7 mm 1 m/s 737 mmHg 99%
    01:00 +12°C° 0.2 mm 1 m/s 737 mmHg 99%
    02:00 +12°C° 0.2 mm 2 m/s 736 mmHg 98%
    03:00 +12°C° 0.2 mm 2 m/s 736 mmHg 98%
    04:00 +12°C° 0 mm 2 m/s 736 mmHg 97%
    05:00 +12°C° 0 mm 2 m/s 736 mmHg 95%
    06:00 +10°C° 0 mm 2 m/s 736 mmHg 94%
    07:00 +10°C° 0 mm 2 m/s 736 mmHg 91%
    08:00 +10°C° 0 mm 2 m/s 737 mmHg 89%
    09:00 +10°C° 0 mm 2 m/s 737 mmHg 87%
    10:00 +11°C° 0 mm 3 m/s 737 mmHg 82%
    11:00 +12°C° 0 mm 3 m/s 737 mmHg 77%
    12:00 +13°C° 0 mm 3 m/s 737 mmHg 73%
    13:00 +13°C° 0 mm 3 m/s 737 mmHg 73%
    14:00 +13°C° 0 mm 3 m/s 737 mmHg 73%
    15:00 +13°C° 0 mm 4 m/s 737 mmHg 74%
    16:00 +12°C° 0 mm 3 m/s 738 mmHg 76%
    17:00 +10°C° 0 mm 3 m/s 739 mmHg 78%
    18:00 +9°C° 0 mm 3 m/s 740 mmHg 81%
    19:00 +8°C° 0 mm 2 m/s 740 mmHg 80%
    20:00 +8°C° 0 mm 2 m/s 741 mmHg 80%
    21:00 +7°C° 0 mm 2 m/s 741 mmHg 79%
    22:00 +6°C° 0 mm 2 m/s 741 mmHg 79%
    23:00 +6°C° 0 mm 1 m/s 742 mmHg 79%

    15 Décembre, Dimanche

    Heure Température Précipitation Vent Pression Humidité
    00:00 +6°C° 0 mm 1 m/s 742 mmHg 80%
    01:00 +5°C° 0 mm 1 m/s 742 mmHg 80%
    02:00 +5°C° 0 mm 1 m/s 742 mmHg 80%
    03:00 +5°C° 0 mm 1 m/s 743 mmHg 80%
    04:00 +4°C° 0 mm 1 m/s 743 mmHg 80%
    05:00 +4°C° 0 mm 1 m/s 743 mmHg 80%
    06:00 +4°C° 0 mm 1 m/s 744 mmHg 80%
    07:00 +5°C° 0 mm 1 m/s 744 mmHg 75%
    08:00 +7°C° 0 mm 1 m/s 745 mmHg 69%
    09:00 +8°C° 0 mm 1 m/s 745 mmHg 63%
    10:00 +10°C° 0 mm 1 m/s 745 mmHg 58%
    11:00 +12°C° 0 mm 2 m/s 744 mmHg 52%
    12:00 +13°C° 0 mm 2 m/s 744 mmHg 46%
    13:00 +14°C° 0 mm 2 m/s 744 mmHg 47%
    14:00 +14°C° 0 mm 2 m/s 743 mmHg 47%
    15:00 +14°C° 0 mm 3 m/s 743 mmHg 47%
    16:00 +13°C° 0 mm 2 m/s 743 mmHg 54%
    17:00 +12°C° 0 mm 2 m/s 743 mmHg 60%
    18:00 +9°C° 0 mm 2 m/s 743 mmHg 67%
    19:00 +9°C° 0 mm 2 m/s 743 mmHg 69%
    20:00 +9°C° 0 mm 2 m/s 744 mmHg 71%
    21:00 +9°C° 0 mm 2 m/s 744 mmHg 73%
    22:00 +9°C° 0 mm 2 m/s 744 mmHg 77%
    23:00 +9°C° 0 mm 2 m/s 744 mmHg 81%

    16 Décembre, Lundi

    Heure Température Précipitation Vent Pression Humidité
    00:00 +10°C° 0 mm 2 m/s 744 mmHg 84%
    01:00 +10°C° 0 mm 2 m/s 744 mmHg 86%
    02:00 +10°C° 0 mm 2 m/s 744 mmHg 89%
    03:00 +12°C° 0 mm 2 m/s 744 mmHg 91%
    04:00 +12°C° 0 mm 2 m/s 744 mmHg 91%
    05:00 +11°C° 0 mm 3 m/s 744 mmHg 91%
    06:00 +12°C° 0 mm 3 m/s 744 mmHg 92%
    07:00 +12°C° 0 mm 3 m/s 744 mmHg 89%
    08:00 +12°C° 0 mm 4 m/s 744 mmHg 87%
    09:00 +12°C° 0 mm 4 m/s 745 mmHg 84%
    10:00 +14°C° 0 mm 4 m/s 744 mmHg 79%
    11:00 +15°C° 0 mm 5 m/s 744 mmHg 74%
    12:00 +16°C° 0 mm 5 m/s 743 mmHg 69%
    13:00 +17°C° 0 mm 5 m/s 742 mmHg 70%
    14:00 +17°C° 0 mm 5 m/s 742 mmHg 71%
    15:00 +19°C° 0 mm 5 m/s 741 mmHg 71%
    16:00 +17°C° 0 mm 5 m/s 741 mmHg 76%
    17:00 +16°C° 0 mm 5 m/s 740 mmHg 80%
    18:00 +16°C° 0 mm 6 m/s 740 mmHg 84%
    19:00 +16°C° 0 mm 6 m/s 739 mmHg 85%
    20:00 +17°C° 0 mm 6 m/s 739 mmHg 87%
    21:00 +17°C° 0 mm 6 m/s 739 mmHg 88%
    22:00 +19°C° 0.7 mm 6 m/s 738 mmHg 89%
    23:00 +19°C° 0.7 mm 6 m/s 737 mmHg 90%
    Voir plus